| time (UTC) | temp F | wind direction | speed MPH | gust MPH | rain 1hr in | rain 24hr in | rain mn in | humidity % | barometer mb |
| 20260504181024 | 73 | 42 | 2.0 | 9.0 | 0.00 | 0.00 | 0.00 | 47 | 974.2 |
| 20260504180523 | 72 | 271 | 1.0 | 5.0 | 0.00 | 0.00 | 0.00 | 47 | 974.1 |
| 20260504180024 | 73 | 360 | 2.0 | 5.0 | 0.00 | 0.00 | 0.00 | 47 | 974.2 |
| 20260504175523 | 73 | 5 | 2.0 | 6.0 | 0.00 | 0.00 | 0.00 | 46 | 974.1 |
| 20260504175023 | 73 | 261 | 2.0 | 12.0 | 0.00 | 0.00 | 0.00 | 46 | 974.3 |
| 20260504174522 | 73 | 100 | 2.0 | 12.0 | 0.00 | 0.00 | 0.00 | 47 | 974.3 |
| 20260504174023 | 73 | 34 | 3.0 | 12.0 | 0.00 | 0.00 | 0.00 | 44 | 974.3 |
| 20260504173522 | 74 | 24 | 5.0 | 13.0 | 0.00 | 0.00 | 0.00 | 44 | 974.2 |
| 20260504173021 | 74 | 9 | 6.0 | 13.0 | 0.00 | 0.00 | 0.00 | 45 | 974.2 |
| 20260504172522 | 74 | 42 | 4.0 | 10.0 | 0.00 | 0.00 | 0.00 | 45 | 974.3 |
| 20260504172021 | 72 | 360 | 3.0 | 10.0 | 0.00 | 0.00 | 0.00 | 45 | 974.5 |
| 20260504171519 | 73 | 270 | 1.0 | 11.0 | 0.00 | 0.00 | 0.00 | 48 | 974.5 |
| 20260504171021 | 72 | 274 | 3.0 | 11.0 | 0.00 | 0.00 | 0.00 | 45 | 974.5 |
| 20260504170516 | 73 | 5 | 3.0 | 9.0 | 0.00 | 0.00 | 0.00 | 46 | 974.6 |
| 20260504151059 | 67 | 41 | 5.0 | 12.0 | 0.00 | 0.00 | 0.00 | 47 | 976.0 |
| 20260504150557 | 67 | 34 | 4.0 | 16.0 | 0.00 | 0.00 | 0.00 | 46 | 976.0 |
| 20260504141048 | 64 | 261 | 3.0 | 8.0 | 0.00 | 0.00 | 0.00 | 50 | 976.4 |
| 20260504140548 | 64 | 231 | 4.0 | 10.0 | 0.00 | 0.00 | 0.00 | 50 | 976.5 |
| 20260504130536 | 60 | 46 | 2.0 | 9.0 | 0.00 | 0.00 | 0.00 | 52 | 976.3 |
| 20260504110513 | 48 | 15 | 0.0 | 2.0 | 0.00 | 0.00 | 0.00 | 71 | 976.5 |
| 20260504100508 | 47 | 15 | 0.0 | 2.0 | 0.00 | 0.00 | 0.00 | 70 | 976.3 |
| 20260504082002 | 48 | 16 | 1.0 | 2.0 | 0.00 | 0.00 | 0.00 | 68 | 976.5 |
| 20260504081503 | 48 | 16 | 0.0 | 2.0 | 0.00 | 0.00 | 0.00 | 68 | 976.5 |
| 20260504081002 | 48 | 16 | 0.0 | 2.0 | 0.00 | 0.00 | 0.00 | 68 | 976.4 |
| 20260504080501 | 48 | 16 | 0.0 | 1.0 | 0.00 | 0.00 | 0.00 | 68 | 976.4 |
| 20260504050551 | 49 | 248 | 0.0 | 0.0 | 0.00 | 0.00 | 0.00 | 69 | 976.9 |
| 20260504045550 | 49 | 248 | 0.0 | 1.0 | 0.00 | 0.00 | 0.00 | 69 | 976.9 |
| 20260504045054 | 49 | 248 | 0.0 | 1.0 | 0.00 | 0.00 | 0.00 | 69 | 976.8 |
| 20260504044551 | 48 | 248 | 0.0 | 1.0 | 0.00 | 0.00 | 0.00 | 68 | 976.7 |
| 20260504044048 | 48 | 248 | 0.0 | 0.0 | 0.00 | 0.00 | 0.00 | 68 | 976.7 |
| 20260504043548 | 48 | 248 | 0.0 | 0.0 | 0.00 | 0.00 | 0.00 | 68 | 976.6 |
| 20260504043048 | 48 | 248 | 0.0 | 0.0 | 0.00 | 0.00 | 0.00 | 68 | 976.6 |
| 20260504042548 | 48 | 248 | 0.0 | 0.0 | 0.00 | 0.00 | 0.00 | 68 | 976.5 |
| 20260504042048 | 48 | 248 | 0.0 | 0.0 | 0.00 | 0.00 | 0.00 | 68 | 976.4 |
| 20260504041546 | 48 | 248 | 0.0 | 0.0 | 0.00 | 0.00 | 0.00 | 68 | 976.5 |
| 20260504041046 | 48 | 248 | 0.0 | 0.0 | 0.00 | 0.00 | 0.00 | 68 | 976.4 |
| 20260504040546 | 48 | 248 | 0.0 | 0.0 | 0.00 | 0.00 | 0.00 | 68 | 976.5 |
| 20260504040046 | 48 | 248 | 0.0 | 2.0 | 0.00 | 0.00 | 0.00 | 67 | 976.6 |
| 20260504035543 | 47 | 248 | 0.0 | 2.0 | 0.00 | 0.00 | 0.00 | 67 | 976.5 |
| 20260504035042 | 47 | 248 | 1.0 | 2.0 | 0.00 | 0.00 | 0.00 | 68 | 976.6 |
| 20260504034542 | 47 | 248 | 0.0 | 2.0 | 0.00 | 0.00 | 0.00 | 68 | 976.6 |
| 20260504034045 | 46 | 248 | 1.0 | 2.0 | 0.00 | 0.00 | 0.00 | 70 | 976.6 |
| 20260504033542 | 46 | 248 | 0.0 | 2.0 | 0.00 | 0.00 | 0.00 | 70 | 976.5 |
| 20260504033050 | 46 | 248 | 0.0 | 2.0 | 0.00 | 0.00 | 0.00 | 70 | 976.5 |
| 20260504032542 | 46 | 248 | 0.0 | 2.0 | 0.00 | 0.00 | 0.00 | 70 | 976.5 |
| 20260504032043 | 46 | 248 | 0.0 | 0.0 | 0.00 | 0.00 | 0.00 | 69 | 976.4 |
| 20260504031543 | 46 | 248 | 0.0 | 0.0 | 0.00 | 0.00 | 0.00 | 68 | 976.5 |
| 20260504031045 | 46 | 248 | 0.0 | 0.0 | 0.00 | 0.00 | 0.00 | 68 | 976.6 |
| 20260504030541 | 46 | 248 | 0.0 | 0.0 | 0.00 | 0.00 | 0.00 | 67 | 976.5 |
| 20260504030043 | 46 | 248 | 0.0 | 1.0 | 0.00 | 0.00 | 0.00 | 66 | 976.5 |
| 20260504025542 | 46 | 248 | 0.0 | 1.0 | 0.00 | 0.00 | 0.00 | 66 | 976.5 |
| 20260504025043 | 46 | 248 | 0.0 | 1.0 | 0.00 | 0.00 | 0.00 | 66 | 976.5 |
| 20260504024554 | 46 | 248 | 0.0 | 0.0 | 0.00 | 0.00 | 0.00 | 66 | 976.5 |
| 20260504024041 | 46 | 248 | 0.0 | 0.0 | 0.00 | 0.00 | 0.00 | 66 | 976.6 |
| 20260504023545 | 47 | 248 | 0.0 | 1.0 | 0.00 | 0.00 | 0.00 | 64 | 976.5 |
| 20260504023044 | 47 | 248 | 0.0 | 1.0 | 0.00 | 0.00 | 0.00 | 64 | 976.6 |
| 20260504022541 | 47 | 248 | 0.0 | 1.0 | 0.00 | 0.00 | 0.00 | 63 | 976.6 |
| 20260504022041 | 47 | 248 | 0.0 | 2.0 | 0.00 | 0.00 | 0.00 | 62 | 976.5 |
| 20260504021549 | 47 | 248 | 0.0 | 2.0 | 0.00 | 0.00 | 0.00 | 63 | 976.4 |
| 20260504021040 | 47 | 248 | 0.0 | 2.0 | 0.00 | 0.00 | 0.00 | 62 | 976.4 |
| 20260504020539 | 47 | 248 | 0.0 | 2.0 | 0.00 | 0.00 | 0.00 | 61 | 976.3 |
| 20260504020046 | 48 | 248 | 0.0 | 3.0 | 0.00 | 0.00 | 0.00 | 62 | 976.3 |
| 20260504015540 | 48 | 248 | 1.0 | 3.0 | 0.00 | 0.00 | 0.00 | 62 | 976.2 |
| 20260504015040 | 48 | 248 | 0.0 | 3.0 | 0.00 | 0.00 | 0.00 | 61 | 976.1 |
| 20260504014539 | 48 | 248 | 0.0 | 3.0 | 0.00 | 0.00 | 0.00 | 62 | 976.2 |
| 20260504014038 | 48 | 248 | 0.0 | 3.0 | 0.00 | 0.00 | 0.00 | 61 | 976.2 |
| 20260504013539 | 48 | 248 | 0.0 | 0.0 | 0.00 | 0.00 | 0.00 | 60 | 976.0 |
| 20260504013047 | 49 | 248 | 0.0 | 0.0 | 0.00 | 0.00 | 0.00 | 58 | 975.9 |
| 20260504012539 | 49 | 248 | 0.0 | 0.0 | 0.00 | 0.00 | 0.00 | 58 | 975.9 |
| 20260504012038 | 49 | 248 | 0.0 | 0.0 | 0.00 | 0.00 | 0.00 | 59 | 975.9 |
| 20260504011541 | 49 | 248 | 0.0 | 0.0 | 0.00 | 0.00 | 0.00 | 59 | 975.9 |
| 20260504011037 | 50 | 248 | 0.0 | 0.0 | 0.00 | 0.00 | 0.00 | 60 | 975.7 |
| 20260504010537 | 50 | 248 | 0.0 | 0.0 | 0.00 | 0.00 | 0.00 | 59 | 975.7 |
| 20260504010037 | 50 | 248 | 0.0 | 0.0 | 0.00 | 0.00 | 0.00 | 57 | 975.6 |
| 20260504005537 | 51 | 248 | 0.0 | 0.0 | 0.00 | 0.00 | 0.00 | 58 | 975.6 |
| 20260504005037 | 51 | 248 | 0.0 | 0.0 | 0.00 | 0.00 | 0.00 | 57 | 975.6 |
| 20260504004543 | 51 | 248 | 0.0 | 0.0 | 0.00 | 0.00 | 0.00 | 55 | 975.5 |
| 20260504004037 | 52 | 248 | 0.0 | 0.0 | 0.00 | 0.00 | 0.00 | 56 | 975.4 |
| 20260504003538 | 52 | 248 | 0.0 | 0.0 | 0.00 | 0.00 | 0.00 | 54 | 975.3 |
| 20260504003037 | 53 | 248 | 0.0 | 2.0 | 0.00 | 0.00 | 0.00 | 53 | 975.4 |
| 20260504002537 | 53 | 248 | 0.0 | 2.0 | 0.00 | 0.00 | 0.00 | 53 | 975.3 |
| 20260504002040 | 54 | 248 | 0.0 | 1.0 | 0.00 | 0.00 | 0.00 | 51 | 975.3 |
| 20260504001537 | 54 | 248 | 0.0 | 0.0 | 0.00 | 0.00 | 0.00 | 51 | 975.1 |
| 20260504001036 | 54 | 248 | 0.0 | 1.0 | 0.00 | 0.00 | 0.00 | 50 | 975.3 |
| 20260504000535 | 55 | 248 | 0.0 | 2.0 | 0.00 | 0.00 | 0.00 | 49 | 975.3 |
| 20260504000035 | 56 | 248 | 0.0 | 2.0 | 0.00 | 0.00 | 0.00 | 49 | 975.2 |
| 20260503235535 | 56 | 248 | 0.0 | 2.0 | 0.00 | 0.00 | 0.00 | 49 | 975.2 |
| 20260503235039 | 57 | 248 | 0.0 | 2.0 | 0.00 | 0.00 | 0.00 | 47 | 975.2 |
| 20260503234535 | 57 | 248 | 0.0 | 1.0 | 0.00 | 0.00 | 0.00 | 47 | 975.2 |
| 20260503234035 | 58 | 248 | 0.0 | 3.0 | 0.00 | 0.00 | 0.00 | 46 | 975.2 |
| 20260503233536 | 58 | 250 | 1.0 | 3.0 | 0.00 | 0.00 | 0.00 | 42 | 975.2 |
| 20260503233034 | 58 | 5 | 0.0 | 1.0 | 0.00 | 0.00 | 0.00 | 44 | 975.2 |
| 20260503232534 | 59 | 5 | 0.0 | 1.0 | 0.00 | 0.00 | 0.00 | 41 | 975.2 |
| 20260503232034 | 59 | 5 | 0.0 | 1.0 | 0.00 | 0.00 | 0.00 | 42 | 975.1 |
| 20260503231534 | 60 | 5 | 0.0 | 2.0 | 0.00 | 0.00 | 0.00 | 39 | 975.2 |
| 20260503231034 | 61 | 5 | 0.0 | 3.0 | 0.00 | 0.00 | 0.00 | 37 | 975.1 |
| 20260503230534 | 62 | 5 | 0.0 | 4.0 | 0.00 | 0.00 | 0.00 | 37 | 975.1 |
| 20260503230034 | 63 | 5 | 0.0 | 4.0 | 0.00 | 0.00 | 0.00 | 34 | 975.0 |
| 20260503225533 | 63 | 271 | 1.0 | 4.0 | 0.00 | 0.00 | 0.00 | 30 | 974.9 |
| 20260503225033 | 63 | 271 | 0.0 | 5.0 | 0.00 | 0.00 | 0.00 | 31 | 975.0 |
| 20260503224534 | 63 | 238 | 0.0 | 7.0 | 0.00 | 0.00 | 0.00 | 29 | 975.0 |
| 20260503224032 | 63 | 213 | 2.0 | 7.0 | 0.00 | 0.00 | 0.00 | 28 | 975.1 |
| 20260503223532 | 64 | 39 | 2.0 | 6.0 | 0.00 | 0.00 | 0.00 | 28 | 975.1 |
| 20260503223032 | 64 | 42 | 0.0 | 5.0 | 0.00 | 0.00 | 0.00 | 30 | 975.1 |
| 20260503222531 | 64 | 42 | 2.0 | 5.0 | 0.00 | 0.00 | 0.00 | 28 | 975.1 |
| 20260503222031 | 64 | 220 | 1.0 | 4.0 | 0.00 | 0.00 | 0.00 | 28 | 975.2 |
| 20260503221533 | 64 | 248 | 1.0 | 7.0 | 0.00 | 0.00 | 0.00 | 28 | 975.2 |
| 20260503221034 | 64 | 22 | 1.0 | 6.0 | 0.00 | 0.00 | 0.00 | 29 | 975.3 |
| 20260503220530 | 65 | 260 | 1.0 | 5.0 | 0.00 | 0.00 | 0.00 | 28 | 975.3 |
| 20260503220034 | 65 | 9 | 0.0 | 6.0 | 0.00 | 0.00 | 0.00 | 32 | 975.3 |
| 20260503215529 | 65 | 272 | 1.0 | 6.0 | 0.00 | 0.00 | 0.00 | 28 | 975.3 |
| 20260503215029 | 65 | 22 | 1.0 | 10.0 | 0.00 | 0.00 | 0.00 | 30 | 975.3 |
| 20260503214529 | 65 | 23 | 2.0 | 10.0 | 0.00 | 0.00 | 0.00 | 28 | 975.3 |
| 20260503214029 | 65 | 5 | 2.0 | 8.0 | 0.00 | 0.00 | 0.00 | 29 | 975.4 |
| 20260503213529 | 65 | 5 | 2.0 | 10.0 | 0.00 | 0.00 | 0.00 | 28 | 975.4 |
| 20260503213029 | 65 | 273 | 2.0 | 10.0 | 0.00 | 0.00 | 0.00 | 27 | 975.4 |
| 20260503212531 | 65 | 24 | 2.0 | 6.0 | 0.00 | 0.00 | 0.00 | 29 | 975.3 |
| 20260503212029 | 65 | 271 | 2.0 | 10.0 | 0.00 | 0.00 | 0.00 | 29 | 975.4 |
| 20260503211536 | 65 | 160 | 2.0 | 10.0 | 0.00 | 0.00 | 0.00 | 30 | 975.4 |
| 20260503211027 | 65 | 67 | 1.0 | 7.0 | 0.00 | 0.00 | 0.00 | 29 | 975.4 |
| 20260503210526 | 65 | 51 | 3.0 | 9.0 | 0.00 | 0.00 | 0.00 | 30 | 975.4 |
| 20260503210026 | 65 | 5 | 2.0 | 9.0 | 0.00 | 0.00 | 0.00 | 30 | 975.5 |
| 20260503205533 | 65 | 30 | 4.0 | 9.0 | 0.00 | 0.00 | 0.00 | 30 | 975.7 |
| 20260503205026 | 66 | 17 | 2.0 | 10.0 | 0.00 | 0.00 | 0.00 | 29 | 975.7 |
| 20260503204525 | 65 | 59 | 2.0 | 10.0 | 0.00 | 0.00 | 0.00 | 29 | 975.8 |
| 20260503204024 | 65 | 44 | 2.0 | 6.0 | 0.00 | 0.00 | 0.00 | 29 | 975.7 |
| 20260503203527 | 65 | 360 | 2.0 | 6.0 | 0.00 | 0.00 | 0.00 | 29 | 975.7 |
| 20260503203024 | 65 | 9 | 1.0 | 6.0 | 0.00 | 0.00 | 0.00 | 28 | 975.8 |
| 20260503202523 | 64 | 271 | 2.0 | 8.0 | 0.00 | 0.00 | 0.00 | 28 | 975.9 |
| 20260503202022 | 64 | 24 | 2.0 | 8.0 | 0.00 | 0.00 | 0.00 | 28 | 975.9 |
| 20260503201522 | 65 | 242 | 2.0 | 6.0 | 0.00 | 0.00 | 0.00 | 30 | 976.0 |
| 20260503201021 | 65 | 246 | 2.0 | 8.0 | 0.00 | 0.00 | 0.00 | 31 | 976.1 |
| 20260503200522 | 64 | 266 | 2.0 | 8.0 | 0.00 | 0.00 | 0.00 | 31 | 976.1 |
| 20260503200022 | 64 | 10 | 2.0 | 7.0 | 0.00 | 0.00 | 0.00 | 31 | 976.1 |
| 20260503195521 | 64 | 27 | 3.0 | 10.0 | 0.00 | 0.00 | 0.00 | 31 | 976.3 |
| 20260503195021 | 64 | 32 | 4.0 | 10.0 | 0.00 | 0.00 | 0.00 | 31 | 976.3 |
| 20260503194521 | 64 | 360 | 3.0 | 7.0 | 0.00 | 0.00 | 0.00 | 32 | 976.5 |
| 20260503194021 | 64 | 9 | 1.0 | 7.0 | 0.00 | 0.00 | 0.00 | 32 | 976.6 |
| 20260503193519 | 65 | 250 | 1.0 | 6.0 | 0.00 | 0.00 | 0.00 | 31 | 976.7 |
| 20260503193034 | 64 | 22 | 1.0 | 9.0 | 0.00 | 0.00 | 0.00 | 31 | 976.7 |
| 20260503192518 | 64 | 42 | 2.0 | 6.0 | 0.00 | 0.00 | 0.00 | 31 | 976.7 |
| 20260503192018 | 63 | 270 | 1.0 | 8.0 | 0.00 | 0.00 | 0.00 | 35 | 976.8 |
| 20260503191518 | 63 | 17 | 3.0 | 8.0 | 0.00 | 0.00 | 0.00 | 32 | 976.9 |
| 20260503191021 | 63 | 202 | 1.0 | 8.0 | 0.00 | 0.00 | 0.00 | 30 | 977.0 |
| 20260503190517 | 63 | 42 | 3.0 | 8.0 | 0.00 | 0.00 | 0.00 | 29 | 977.0 |
| 20260503190030 | 64 | 238 | 2.0 | 7.0 | 0.00 | 0.00 | 0.00 | 35 | 977.0 |
| 20260503185516 | 63 | 184 | 2.0 | 6.0 | 0.00 | 0.00 | 0.00 | 32 | 977.3 |
| 20260503185016 | 63 | 247 | 2.0 | 6.0 | 0.00 | 0.00 | 0.00 | 31 | 977.2 |
| 20260503184518 | 62 | 267 | 2.0 | 7.0 | 0.00 | 0.00 | 0.00 | 31 | 977.5 |
| 20260503184015 | 62 | 260 | 1.0 | 18.0 | 0.00 | 0.00 | 0.00 | 32 | 977.5 |
| 20260503183614 | 62 | 28 | 4.0 | 18.0 | 0.00 | 0.00 | 0.00 | 30 | 977.7 |
| 20260503183013 | 61 | 269 | 3.0 | 10.0 | 0.00 | 0.00 | 0.00 | 31 | 977.6 |
| 20260503182518 | 61 | 270 | 3.0 | 8.0 | 0.00 | 0.00 | 0.00 | 31 | 977.6 |
| 20260503182017 | 61 | 5 | 3.0 | 8.0 | 0.00 | 0.00 | 0.00 | 34 | 977.9 |
| 20260503181513 | 61 | 30 | 2.0 | 9.0 | 0.00 | 0.00 | 0.00 | 32 | 977.9 |